To NAV CANADA Home Page Login to a new session Search on AWWS site Feedback and Comments Disclaimer Vers la page française équivalente Tips FAQ What's new on the site To the Forecasts and Observations / NOTAM section To "File a Flight Plan" website Publications and other links Update of the User's profile FIC Telephone Numbers My Weather Data Folder Route Weather Data Regional Weather Data Local Weather Data To the Forecasts and Observations / NOTAM section
Request Generated 07/30/2015 at 00:01:35 UTC . Weather information available at that time is displayed.

METAR/TAF

WHALE COVE/NU    

LWIS CYXN 292300Z AUTO 05011KT 11/10 A2971=
METAR CYXN 292200Z 06014KT 15SM FEW005 FEW015 SCT210 12/10 A2971 RMK
ST1SC1CI2 ST S/SC N/ 12.8/9.7/0/0 LAST STFD OB/NXT 301200Z SLP061=
METAR CYXN 292100Z 05010KT 15SM OVC015 12/10 A2971 RMK SC8 CIG RAG
SLP062=

CYXN - No TAF is issued for this station

Your time UTC time
Weather data provided by Environment Canada and NAV CANADA